Weather History for Westhampton Beach, NY

Change the Weather History Date:

Thursday, February 28, 2013

  Actual Average Record
Temperature  
Mean Temperature 40 °F -  
Max Temperature 46 °F 40 °F 54 °F (2011)
Min Temperature 33 °F 23 °F 1 °F (2014)
Degree Days  
Heating Degree Days 26    
Moisture  
Dew Point 37 °F    
Average Humidity 88    
Maximum Humidity 93    
Minimum Humidity 73    
Precipitation  
Precipitation 0.09 in - - ()
Sea Level Pressure  
Sea Level Pressure 29.60 in    
Wind  
Wind Speed 2 mph (SW)    
Max Wind Speed 10 mph    
Max Gust Speed -    
Visibility 8 miles    
Events Rain    
Averages and records for this station are not official NWS values.
T = Trace of Precipitation, MM = Missing Value Source: NWS Daily Summary

Daily Weather History Graph

Daily Weather History Graph

Search for Another Location

Airport:

Trip Planner

Search our weather history database for the weather conditions in past years. The results will help you decide how hot, cold, wet, or windy it might be!

Date:

Astronomy

Feb. 28, 2013 Rise Set
Actual Time 6:25 AM EST 5:40 PM EST
Civil Twilight 5:58 AM EST 6:08 PM EST
Nautical Twilight 5:26 AM EST 6:40 PM EST
Astronomical Twilight 4:54 AM EST 7:11 PM EST
Moon 9:06 PM EST (2/28) 7:32 AM EST (2/28)
Length of Visible Light 12h 10m
Length of Day
11h 15m
Waning Gibbous, 91% of the Moon is Illuminated
Feb 28
Waning Gibbous
Mar 4
Last Quarter
Mar 11
New
Mar 19
First Quarter
Mar 27
Full

Hourly Weather History & Observations

Time (EST) Temp. Windchill Dew Point Humidity Pressure Visibility Wind Dir Wind Speed Gust Speed Precip Events Conditions
12:53 AM 33.1 °F - 30.9 °F 92% 29.64 in 10.0 mi Calm Calm - N/A   Mostly Cloudy
2:53 AM 36.0 °F - 34.0 °F 93% 29.63 in 9.0 mi Calm Calm - N/A   Overcast
3:53 AM 36.0 °F - 33.1 °F 89% 29.63 in 7.0 mi Calm Calm - N/A   Overcast
4:53 AM 35.1 °F - 33.1 °F 92% 29.63 in 8.0 mi Calm Calm - N/A   Overcast
5:53 AM 36.0 °F - 34.0 °F 93% 29.63 in 8.0 mi Calm Calm - N/A   Overcast
6:53 AM 37.0 °F - 35.1 °F 93% 29.64 in 5.0 mi Calm Calm - 0.00 in Rain Light Rain
7:07 AM 37.4 °F - 35.6 °F 93% 29.64 in 2.5 mi Calm Calm - 0.02 in Rain Light Rain
7:15 AM 37.4 °F - 35.6 °F 93% 29.64 in 3.0 mi Calm Calm - 0.02 in Rain Light Rain
7:53 AM 39.9 °F - 37.9 °F 93% 29.64 in 4.0 mi Calm Calm - 0.03 in Rain Light Rain
8:53 AM 45.0 °F 43.5 °F 42.1 °F 90% 29.63 in 10.0 mi WSW 3.5 mph - 0.00 in   Mostly Cloudy
9:53 AM 46.0 °F 42.5 °F 37.9 °F 73% 29.62 in 10.0 mi WSW 6.9 mph - N/A   Overcast
10:53 AM 46.0 °F 43.9 °F 39.9 °F 79% 29.62 in 9.0 mi South 4.6 mph - 0.00 in Rain Light Rain
11:53 AM 46.9 °F - 39.0 °F 74% 29.60 in 10.0 mi ESE 5.8 mph - 0.00 in   Partly Cloudy
12:26 PM 44.6 °F 41.4 °F 37.4 °F 76% 29.59 in 10.0 mi SE 5.8 mph - N/A   Overcast
12:53 PM 44.1 °F 41.5 °F 37.9 °F 79% 29.57 in 10.0 mi ESE 4.6 mph - N/A   Overcast
1:53 PM 44.1 °F 42.5 °F 37.9 °F 79% 29.57 in 10.0 mi East 3.5 mph - N/A   Overcast
2:16 PM 44.6 °F 43.1 °F 37.4 °F 76% 29.58 in 10.0 mi SE 3.5 mph - N/A   Overcast
2:53 PM 43.0 °F - 37.9 °F 82% 29.57 in 10.0 mi Calm Calm - N/A   Overcast
3:29 PM 42.8 °F - 39.2 °F 87% 29.56 in 6.0 mi Calm Calm - 0.00 in Rain Light Rain
4:53 PM 42.1 °F 40.2 °F 39.9 °F 92% 29.56 in 6.0 mi SSW 3.5 mph - 0.01 in Rain Light Rain
5:53 PM 41.0 °F 39.0 °F 39.0 °F 93% 29.56 in 7.0 mi SSW 3.5 mph - 0.00 in   Overcast
6:53 PM 39.9 °F - 37.9 °F 93% 29.57 in 5.0 mi Calm Calm - 0.01 in   Overcast
7:53 PM 39.0 °F - 37.0 °F 93% 29.57 in 7.0 mi Calm Calm - N/A   Overcast
8:27 PM 39.2 °F 37.0 °F 37.4 °F 93% 29.57 in 6.0 mi West 3.5 mph - 0.00 in Rain Light Rain
8:53 PM 39.9 °F 36.7 °F 37.0 °F 89% 29.58 in 8.0 mi WSW 4.6 mph - 0.00 in Rain Light Rain
9:24 PM 39.2 °F 34.2 °F 37.4 °F 93% 29.58 in 10.0 mi WNW 6.9 mph - 0.00 in Rain Light Rain
9:53 PM 39.0 °F 34.0 °F 36.0 °F 89% 29.58 in 10.0 mi WNW 6.9 mph - 0.00 in Rain Light Rain
10:00 PM 39.2 °F 32.5 °F 35.6 °F 87% 29.58 in 10.0 mi WNW 10.4 mph - 0.00 in Rain Light Rain
10:44 PM 37.4 °F 31.4 °F 35.6 °F 93% 29.58 in 10.0 mi WNW 8.1 mph - 0.01 in Rain Light Rain
10:53 PM 37.9 °F 32.1 °F 35.1 °F 89% 29.58 in 10.0 mi WNW 8.1 mph - 0.01 in Rain Light Rain
11:53 PM 37.9 °F 35.5 °F 35.1 °F 89% 29.58 in 7.0 mi WNW 3.5 mph - 0.03 in Rain Light Rain